sat.trackr.live / text

‹ back to catalog

STARLINK-4432

NORAD 53487 · 2022-099Y

PAYLOAD ACTIVE UNKNOWN

§ Identity

Operator
Country
US
Launch date
2022-08-12
Launch site
AFWTR
Launch vehicle
Mass (kg)
RCS (m²)

Purposes: comms

External: N2YO · Heavens-Above · Gunter

§ Orbital elements

Epoch: 2026-09-20T02:46:06.146688Z

Period
93.91 min
Inclination
97.2857°
Eccentricity
0.0001556
Mean motion
15.33445126 rev/d
Perigee alt
464.5 km
Apogee alt
466.6 km
Semi-major
6,843.7 km
B*
-2.1184e-5
RAAN
20.8253°
Arg perigee
99.0958°
Mean anomaly
261.0461°
Rev number
22,549

§ Raw data

STARLINK-44321 53487U 22099Y   26263.11534892 -.00000759  00000+0 -21184-4 0  99932 53487  97.2857  20.8253 0001556  99.0958 261.0461 15.33445126225490

JSON: /api/v1/satellites/53487 · /tle

For live sub-satellite position, see the globe view (requires WebGL).

§ Visibility from observer

Set your observer location to see the next 7 days of passes ≥ 10°. The values pass through the URL so the page stays shareable.

No JS? Fill the form by hand. The geolocation button needs JavaScript.